{"data":{"norad_id":81499,"epoch":"2026-05-22T19:00:32.975712Z","epoch_age_seconds":265535,"freshness":"STALE","line1":"1 81499U          26142.79204833  .00001344  00000+0  36904-3 0  9998","line2":"2 81499  74.0473 280.0238 0001861  12.4779 347.6426 14.48020055505727","mean_motion":14.48020055,"eccentricity":0.0001861,"inclination_deg":74.0473,"raan_deg":280.0238,"arg_perigee_deg":12.4779,"mean_anomaly_deg":347.6426,"bstar":0.00036904,"rev_number":50572,"period_min":99.446136469429,"perigee_km":730.79937037665,"apogee_km":733.44580899594,"semimajor_km":7110.2595896863,"source":"CELESTRAK","updated_at":"2026-05-25T13:38:09.454497Z"}}